Tillbaka till svenska Fidonet
English   Information   Debug  
FILM   0/18
FNEWS_PUBLISH   4881
FN_SYSOP   42085
FN_SYSOP_OLD1   71952
FTP_FIDO   0/2
FTSC_PUBLIC   0/13950
FUNNY   0/4886
GENEALOGY.EUR   0/71
GET_INFO   105
GOLDED   239/408
HAM   784/16617
HOLYSMOKE   0/6791
HOT_SITES   0/1
HTMLEDIT   0/71
HUB203   466
HUB_100   264
HUB_400   39
HUMOR   0/29
IC   0/2851
INTERNET   0/424
INTERUSER   0/3
IP_CONNECT   719
JAMNNTPD   0/233
JAMTLAND   0/47
KATTY_KORNER   0/41
LAN   0/16
LINUX-USER   0/19
LINUXHELP   0/1155
LINUX   0/22287
LINUX_BBS   0/957
mail   18.68
mail_fore_ok   249
MENSA   0/341
MODERATOR   0/102
MONTE   922/992
MOSCOW_OKLAHOMA   0/1245
MUFFIN   0/783
MUSIC   0/321
N203_STAT   938
N203_SYSCHAT   313
NET203   321
NET204   69
NET_DEV   0/10
NORD.ADMIN   0/101
NORD.CHAT   0/2572
NORD.FIDONET   189
NORD.HARDWARE   0/28
NORD.KULTUR   0/114
NORD.PROG   0/32
NORD.SOFTWARE   0/88
NORD.TEKNIK   0/58
NORD   0/453
OCCULT_CHAT   0/93
OS2BBS   0/787
OS2DOSBBS   0/580
OS2HW   0/42
OS2INET   0/37
OS2LAN   0/134
OS2PROG   0/36
OS2REXX   0/113
OS2USER-L   207
OS2   0/4829
OSDEBATE   4571/18996
PASCAL   0/490
PERL   0/457
PHP   0/45
POINTS   0/405
POLITICS   0/29554
POL_INC   2282/14731
PSION   103
R20_ADMIN   1133
R20_AMATORRADIO   0/2
R20_BEST_OF_FIDONET   16
R20_CHAT   0/896
R20_DEPP   0/3
R20_DEV   400
R20_ECHO2   1789
R20_ECHOPRES   0/35
R20_ESTAT   0/719
R20_FIDONETPROG...
...RAM.MYPOINT
  0/2
R20_FIDONETPROGRAM   0/22
R20_FIDONET   0/248
R20_FILEFIND   0/24
R20_FILEFOUND   0/22
R20_HIFI   0/3
R20_INFO2   3681
R20_INTERNET   0/12940
R20_INTRESSE   0/60
R20_INTR_KOM   0/99
R20_KANDIDAT.CHAT   42
R20_KANDIDAT   28
R20_KOM_DEV   112
R20_KONTROLL   0/13360
R20_KORSET   0/18
R20_LOKALTRAFIK   0/24
R20_MODERATOR   0/1852
R20_NC   76
R20_NET200   245
R20_NETWORK.OTH...
...ERNETS
  0/13
R20_OPERATIVSYS...
...TEM.LINUX
  0/44
R20_PROGRAMVAROR   0/1
R20_REC2NEC   534
R20_SFOSM   0/341
R20_SF   0/108
R20_SPRAK.ENGLISH   0/1
R20_SQUISH   107
R20_TEST   2
R20_WORST_OF_FIDONET   20
RAR   0/9
RA_MULTI   106
RA_UTIL   0/162
REGCON.EUR   0/2067
REGCON   0/13
SCIENCE   0/1206
SF   0/239
SHAREWARE_SUPPORT   0/5146
SHAREWRE   0/14
SIMPSONS   0/169
STATS_OLD1   0/2539.065
STATS_OLD2   0/2530
STATS_OLD3   0/2395.095
STATS_OLD4   0/1692.25
SURVIVOR   0/495
SYSOPS_CORNER   0/3
SYSOP   0/84
TAGLINES   0/112
TEAMOS2   0/4530
TECH   479/2617
TEST.444   0/105
TRAPDOOR   0/19
TREK   0/755
TUB   0/290
UFO   0/40
UNIX   0/1316
USA_EURLINK   0/102
USR_MODEMS   0/1
VATICAN   0/2740
VIETNAM_VETS   0/14
VIRUS   0/378
VIRUS_INFO   0/201
VISUAL_BASIC   0/473
WHITEHOUSE   0/5187
WIN2000   0/101
WIN32   0/30
WIN95   0/4291
WIN95_OLD1   0/70272
WINDOWS   0/1517
WWB_SYSOP   0/419
WWB_TECH   696/810
ZCC-PUBLIC   0/1
ZEC   4

 
4DOS   0/134
ABORTION   0/7
ALASKA_CHAT   0/506
ALLFIX_FILE   0/1313
ALLFIX_FILE_OLD1   0/7997
ALT_DOS   0/152
AMATEUR_RADIO   0/1039
AMIGASALE   0/14
AMIGA   0/331
AMIGA_INT   0/1
AMIGA_PROG   0/20
AMIGA_SYSOP   0/26
ANIME   0/15
ARGUS   0/924
ASCII_ART   0/340
ASIAN_LINK   0/651
ASTRONOMY   0/417
AUDIO   0/92
AUTOMOBILE_RACING   0/105
BABYLON5   0/17862
BAG   135
BATPOWER   0/361
BBBS.ENGLISH   0/382
BBSLAW   0/109
BBS_ADS   0/5290
BBS_INTERNET   0/507
BIBLE   0/3563
BINKD   0/1119
BINKLEY   0/215
BLUEWAVE   0/2173
CABLE_MODEMS   0/25
CBM   0/46
CDRECORD   0/66
CDROM   0/20
CLASSIC_COMPUTER   0/378
COMICS   0/15
CONSPRCY   0/899
COOKING   41026
COOKING_OLD1   22536/24719
COOKING_OLD2   0/40862
COOKING_OLD3   24479/37489
COOKING_OLD4   31860/35496
COOKING_OLD5   9370
C_ECHO   0/189
C_PLUSPLUS   0/31
DIRTY_DOZEN   0/201
DOORGAMES   0/2253
DOS_INTERNET   0/196
duplikat   6102
ECHOLIST   13184/18295
EC_SUPPORT   0/318
ELECTRONICS   0/359
ELEKTRONIK.GER   1534
ENET.LINGUISTIC   0/13
ENET.POLITICS   0/4
ENET.SOFT   0/11701
ENET.SYSOP   34256
ENET.TALKS   0/32
ENGLISH_TUTOR   0/2000
EVOLUTION   0/1335
FDECHO   0/217
FDN_ANNOUNCE   4825/7068
FIDONEWS   24978
FIDONEWS_OLD1   0/49742
FIDONEWS_OLD2   29892/35949
FIDONEWS_OLD3   0/30874
FIDONEWS_OLD4   0/37224
FIDO_SYSOP   12920
FIDO_UTIL   0/180
FILEFIND   0/209
FILEGATE   0/212
Möte HAM, 16617 texter
 lista första sista föregående nästa
Text 4002, 884 rader
Skriven 2010-09-23 00:00:32 av Amsat List (1:323/120.0)
Ärende: [keps]  orb10266.amsa
=============================
[keps]  orb10266.amsa

Return-Path: <keps-bounces@amsat.org>
X-Rcpt: craig.healy@chowda.com
X-UIDL: 1285299846.42412

SB KEPS @ AMSAT  $ORB10266.O
Orbital Elements  10266.OSCAR

HR AMSAT ORBITAL ELEMENTS FOR OSCAR SATELLITES
FROM WA5QGD FORT WORTH,TX September 23, 2010
Send Subscribe/unsubscribe to KEPS at
http://www.amsat.org/mailman/listinfo/keps
BID: ORB10266.O
TO ALL RADIO AMATEURS BT

Satellite: AO-07
Catalog number: 07530
Epoch time:      10266.84319137
Element set:     885
Inclination:      101.4016 deg
RA of node:       278.8794 deg
Eccentricity:    0.0012079
Arg of perigee:   080.4295 deg
Mean anomaly:     279.8142 deg
Mean motion:   12.53579591 rev/day
Decay rate:       -2.7e-07 rev/day^2
Epoch rev:           64081
Checksum:              319

Satellite: FO-29
Catalog number: 24278
Epoch time:      10265.94204269
Element set:    0405
Inclination:      098.5160 deg
RA of node:       081.5749 deg
Eccentricity:    0.0349957
Arg of perigee:   230.1883 deg
Mean anomaly:     126.7975 deg
Mean motion:   13.52953202 rev/day
Decay rate:        6.4e-07 rev/day^2
Epoch rev:           69632
Checksum:              334

Satellite: SO-33
Catalog number: 25509
Epoch time:      10265.48173376
Element set:    0801
Inclination:      031.4334 deg
RA of node:       318.3102 deg
Eccentricity:    0.0353296
Arg of perigee:   060.6605 deg
Mean anomaly:     302.8829 deg
Mean motion:   14.28329749 rev/day
Decay rate:        7.8e-07 rev/day^2
Epoch rev:           62197
Checksum:              308

Satellite: RS-22
Catalog number: 27939
Epoch time:      10266.64966554
Element set:     569
Inclination:      097.8776 deg
RA of node:       127.8856 deg
Eccentricity:    0.0014640
Arg of perigee:   106.5920 deg
Mean anomaly:     253.6888 deg
Mean motion:   14.63454188 rev/day
Decay rate:       1.07e-06 rev/day^2
Epoch rev:           37335
Checksum:              356

Satellite: VO-52
Catalog number: 28650
Epoch time:      10266.65610192
Element set:     604
Inclination:      097.6828 deg
RA of node:       316.1960 deg
Eccentricity:    0.0026307
Arg of perigee:   316.5900 deg
Mean anomaly:     043.3240 deg
Mean motion:   14.81812417 rev/day
Decay rate:       5.32e-06 rev/day^2
Epoch rev:           29127
Checksum:              285

Satellite: SO-67
Catalog number: 35870
Epoch time:      10266.73425126
Element set:     132
Inclination:      097.3218 deg
RA of node:       313.2117 deg
Eccentricity:    0.0004558
Arg of perigee:   103.5936 deg
Mean anomaly:     352.5134 deg
Mean motion:   15.21064037 rev/day
Decay rate:       8.81e-06 rev/day^2
Epoch rev:            5643
Checksum:              281

Satellite: HO-68
Catalog number: 36122
Epoch time:      10266.67867551
Element set:     695
Inclination:      100.4589 deg
RA of node:       326.0643 deg
Eccentricity:    0.0007810
Arg of perigee:   111.3739 deg
Mean anomaly:     248.8203 deg
Mean motion:   13.16281741 rev/day
Decay rate:       -4.5e-07 rev/day^2
Epoch rev:            3717
Checksum:              300

/EX
SB KEPS @ AMSAT  $ORB10266.D
Orbital Elements  10266.MICROS

HR AMSAT ORBITAL ELEMENTS FOR THE MICROSATS
FROM WA5QGD FORT WORTH,TX September 23, 2010
Send Subscribe/unsubscribe to KEPS at
http://www.amsat.org/mailman/listinfo/keps
BID: ORB10266.D
TO ALL RADIO AMATEURS BT

Satellite: UO-11
Catalog number: 14781
Epoch time:      10265.72843712
Element set:     345
Inclination:      098.0459 deg
RA of node:       317.7101 deg
Eccentricity:    0.0008016
Arg of perigee:   286.4090 deg
Mean anomaly:     073.6248 deg
Mean motion:   14.79837385 rev/day
Decay rate:       4.19e-06 rev/day^2
Epoch rev:           42623
Checksum:              308

Satellite: AO-16
Catalog number: 20439
Epoch time:      10265.87978753
Element set:    0001
Inclination:      098.3429 deg
RA of node:       219.9937 deg
Eccentricity:    0.0010009
Arg of perigee:   235.3555 deg
Mean anomaly:     124.6685 deg
Mean motion:   14.31874823 rev/day
Decay rate:        2.4e-07 rev/day^2
Epoch rev:           07936
Checksum:              322

Satellite: LO-19
Catalog number: 20442
Epoch time:      10265.79199324
Element set:     909
Inclination:      098.3048 deg
RA of node:       225.3186 deg
Eccentricity:    0.0011175
Arg of perigee:   229.0160 deg
Mean anomaly:     131.0072 deg
Mean motion:   14.32104616 rev/day
Decay rate:        6.0e-08 rev/day^2
Epoch rev:            7952
Checksum:              275

Satellite: AO-27
Catalog number: 22825
Epoch time:      10265.73895177
Element set:     632
Inclination:      098.4938 deg
RA of node:       211.2053 deg
Eccentricity:    0.0008303
Arg of perigee:   348.4384 deg
Mean anomaly:     011.6611 deg
Mean motion:   14.29308571 rev/day
Decay rate:        2.0e-07 rev/day^2
Epoch rev:           88598
Checksum:              310

Satellite: IO-26
Catalog number: 22826
Epoch time:      10265.85690217
Element set:    0372
Inclination:      098.4884 deg
RA of node:       211.8862 deg
Eccentricity:    0.0008690
Arg of perigee:   343.0843 deg
Mean anomaly:     017.0053 deg
Mean motion:   14.29566073 rev/day
Decay rate:        2.8e-07 rev/day^2
Epoch rev:           88611
Checksum:              313

Satellite: GO-32
Catalog number: 25397
Epoch time:      10266.52826931
Element set:     290
Inclination:      098.3165 deg
RA of node:       268.5781 deg
Eccentricity:    0.0001331
Arg of perigee:   022.4119 deg
Mean anomaly:     337.7103 deg
Mean motion:   14.23185606 rev/day
Decay rate:        1.7e-07 rev/day^2
Epoch rev:           63403
Checksum:              284

